Home   Weather   Sydney   Past weeks

Flag for Australia Past Weather in Sydney, New South Wales, Australia — Yesterday and Last 2 Weeks

Now
75 °F

Partly sunny.


Feels Like: 78 °F
Forecast: 71 / 89 °F
Wind: 13 mph from Northeast

Location: Sydney Airport

Current Time: Jan 19, 2017 at 3:31:18 pm

Latest Report: Jan 19, 2017 at 2:30 pm


Visibility: N/A

Pressure: 29.92 "Hg

Humidity: 47%

Dew Point: 54 °F

Location of SydneyLocation

Past Weather in Sydney — Graph

°F

Sydney Temperature Yesterday

Maximum temperature yesterday: 99 °F (at 8:30 am)
Minimum temperature yesterday: 68 °F (at 11:00 pm)
Average temperature yesterday: 80 °F

High & Low Weather Summary for the Past Weeks

 TemperatureHumidityPressure
High100 °F (Jan 11, 2:00 pm)100% (Jan 5, 8:30 am)30.12 "Hg (Jan 5, 8:30 am)
Low66 °F (Jan 7, 4:00 am)27% (Jan 18, 8:30 am)29.45 "Hg (Jan 13, 6:00 pm)
Average78 °F67%29.86 "Hg
* Reported Jan 4 2:00 pm — Jan 19 2:00 pm, Sydney, Weather by CustomWeather, © 2017

Note: Actual official high and low records may vary slightly from our data, if they occured in-between our weather recording intervals... More about our weather records

Advertising

Sydney Weather History for the Previous 24 Hours

Scroll right to see more
 ConditionsComfort  
Time TempWeatherWind HumidityBarometerVisibility
2:00 pm
Thu, Jan 19
72 °FPartly sunny.12 mph57%29.95 "HgN/A
1:30 pm73 °FScattered showers. Partly sunny.14 mph50%29.95 "HgN/A
1:00 pm72 °FPartly sunny.8 mph57%29.95 "HgN/A
12:00 pm72 °FScattered showers. Broken clouds.13 mph57%29.98 "HgN/A
11:30 am72 °FScattered showers. Broken clouds.9 mph61%29.98 "HgN/A
11:00 am70 °FSprinkles. Partly sunny.8 mph69%29.98 "HgN/A
10:30 am68 °FSprinkles. Broken clouds.10 mph73%29.98 "HgN/A
10:00 am68 °FDrizzle. Broken clouds.13 mph73%29.98 "Hg5 mi
9:30 am70 °FDrizzle. Mostly cloudy.12 mph69%29.98 "HgN/A
9:00 am70 °FScattered showers. More clouds than sun.13 mph64%29.98 "HgN/A
8:00 am70 °FScattered showers. Mostly cloudy.13 mph60%29.98 "HgN/A
7:30 am72 °FScattered showers. Overcast.5 mph53%29.95 "HgN/A
7:00 am72 °FBroken clouds.6 mph57%29.95 "HgN/A
6:30 am70 °FScattered showers. Broken clouds.9 mph60%29.95 "HgN/A
6:00 am70 °FPassing clouds.7 mph64%29.95 "HgN/A
5:30 am70 °FMostly cloudy.9 mph64%29.95 "HgN/A
5:00 am72 °FClear.10 mph57%29.95 "Hg10 mi
4:30 am72 °FClear.10 mph57%29.92 "Hg10 mi
4:00 am72 °FClear.13 mph53%29.92 "Hg10 mi
3:30 am72 °FClear.14 mph61%29.95 "Hg10 mi
3:00 am72 °FClear.15 mph57%29.95 "Hg10 mi
2:00 am70 °FClear.16 mph57%29.95 "Hg10 mi
1:30 am72 °FOvercast.18 mph53%29.98 "HgN/A
1:00 am72 °FOvercast.17 mph53%29.98 "HgN/A
12:30 am70 °FMostly cloudy.15 mph64%29.98 "HgN/A
12:00 am70 °FOvercast.17 mph60%30.01 "HgN/A
11:30 pm
Wed, Jan 18
68 °FScattered showers. Mostly cloudy.17 mph73%30.01 "HgN/A
11:00 pm68 °FSprinkles. Mostly cloudy.17 mph78%30.01 "Hg4 mi
10:30 pm72 °FOvercast.17 mph69%29.98 "HgN/A
10:12 pm72 °FOvercast.17 mph73%29.98 "HgN/A
9:30 pm72 °FOvercast.16 mph73%29.95 "HgN/A
9:00 pm72 °FPassing clouds.18 mph73%29.95 "HgN/A
8:30 pm72 °FPartly cloudy.21 mph78%29.92 "HgN/A
8:00 pm73 °FPartly sunny.22 mph74%29.89 "HgN/A
7:30 pm73 °FBroken clouds.24 mph74%29.86 "HgN/A
7:00 pm73 °FOvercast.24 mph74%29.86 "HgN/A
6:30 pm73 °FPartly sunny.25 mph74%29.83 "HgN/A
6:00 pm75 °FPartly sunny.25 mph74%29.80 "HgN/A
5:30 pm75 °FScattered clouds.25 mph74%29.80 "HgN/A
5:00 pm75 °FScattered clouds.28 mph74%29.77 "HgN/A
4:30 pm75 °FScattered clouds.25 mph78%29.77 "HgN/A
4:00 pm77 °FScattered clouds.28 mph74%29.74 "HgN/A
3:30 pm79 °FPassing clouds.21 mph70%29.74 "HgN/A
3:00 pm77 °FPassing clouds.22 mph74%29.71 "HgN/A
Weather by CustomWeather, © 2017

See weather overviewHow to use our weather pages